This is the latest recevied weather packets stored in our database for station/object W6MAF. If no packets are shown the sender has not sent any weather packets the latest 10 day(s).
| Time | Temp. | Humidity | Pressure | Rain* | Wind** | Luminosity | Snow |
|---|---|---|---|---|---|---|---|
| 1777956810 | 7.22° C | 74% | - | 0 mm | 5.36 m/s, 203° | - | - |
| 1777956513 | 7.22° C | 74% | - | 0 mm | 4.92 m/s, 195° | - | - |
| 1777956215 | 7.22° C | 74% | - | 0 mm | 5.36 m/s, 191° | - | - |
| 1777955949 | 7.22° C | 74% | - | 0 mm | 4.47 m/s, 179° | - | - |
| 1777955917 | 7.22° C | 74% | - | 0 mm | 4.47 m/s, 179° | - | - |
| 1777955617 | 7.22° C | 75% | - | 0 mm | 4.02 m/s, 183° | - | - |
| 1777955319 | 7.22° C | 76% | - | 0 mm | 4.47 m/s, 186° | - | - |
| 1777955021 | 7.22° C | 75% | - | 0 mm | 5.81 m/s, 186° | - | - |
| 1777954724 | 7.22° C | 74% | - | 0 mm | 3.58 m/s, 176° | - | - |
| 1777954426 | 7.22° C | 74% | - | 0 mm | 4.02 m/s, 193° | - | - |
| 1777954128 | 7.78° C | 74% | - | 0 mm | 5.36 m/s, 198° | - | - |
| 1777953830 | 7.78° C | 74% | - | 0 mm | 4.92 m/s, 201° | - | - |
| 1777953530 | 7.78° C | 74% | - | 0 mm | 3.58 m/s, 190° | - | - |
| 1777953232 | 7.78° C | 74% | - | 0 mm | 4.47 m/s, 193° | - | - |
| 1777952935 | 7.78° C | 75% | - | 0 mm | 6.26 m/s, 187° | - | - |
| 1777952637 | 7.78° C | 76% | - | 0 mm | 6.71 m/s, 195° | - | - |
| 1777952339 | 7.78° C | 76% | - | 0 mm | 5.36 m/s, 191° | - | - |
| 1777952038 | 7.78° C | 77% | - | 0 mm | 6.26 m/s, 184° | - | - |
| 1777951741 | 7.78° C | 77% | - | 0 mm | 5.36 m/s, 198° | - | - |
| 1777951443 | 7.78° C | 78% | - | 0 mm | 5.81 m/s, 187° | - | - |
| 1777951145 | 7.78° C | 79% | - | 0 mm | 6.71 m/s, 169° | - | - |
| 1777950848 | 7.78° C | 78% | - | 0 mm | 6.26 m/s, 186° | - | - |
| 1777950550 | 8.33° C | 78% | - | 0 mm | 6.71 m/s, 177° | - | - |
| 1777950249 | 8.33° C | 77% | - | 0 mm | 7.15 m/s, 187° | - | - |
| 1777949952 | 8.33° C | 76% | - | 0 mm | 5.81 m/s, 172° | - | - |
* Rain latest hour (hover to see other rain measurements)
** Current wind speed in m/s (hover to see current wind gust speed)